Location: Carthage
(33.8834°N, 106.6595°W)
Time: 13:02:54
(UTC+00:00)

Cosmos 773 Rocket - Pass Details

Date: 13 February 2026
Orbit: 741 x 772 km, 74.1° (Epoch: 11 March)

Event Time Altitude Azimuth Distance (km) Brightness Sun altitude
Exits shadow 12:43:30 - 334° (NNW) 2,955 6.7 -15.0°
Reaches altitude 10° 12:45:14 10° 329° (NNW) 2,302 6.1 -14.6°
Maximum altitude 12:50:11 45° 258° (WSW) 1,029 4.2 -13.6°
Drops below altitude 10° 12:55:04 10° 187° (S) 2,268 6.5 -12.6°
Sets 12:57:29 0° 181° (S) 3,184 7.3 -12.1°
